| time (UTC) | temp F | wind direction | speed MPH | gust MPH | rain 1hr in | rain 24hr in | rain mn in | humidity % | barometer mb |
| 20260502224312 | 49 | 307 | 4.0 | 8.0 | 0.00 | 0.01 | 0.00 | 46 | 1015.5 |
| 20260502224002 | 49 | 297 | 4.0 | 8.0 | 0.00 | 0.01 | 0.00 | 47 | 1015.5 |
| 20260502223812 | 49 | 287 | 4.0 | 8.0 | 0.00 | 0.01 | 0.00 | 48 | 1015.5 |
| 20260502223501 | 49 | 283 | 4.0 | 10.0 | 0.00 | 0.01 | 0.00 | 48 | 1015.5 |
| 20260502223312 | 49 | 277 | 5.0 | 10.0 | 0.00 | 0.01 | 0.00 | 48 | 1015.6 |
| 20260502223001 | 49 | 270 | 5.0 | 10.0 | 0.00 | 0.01 | 0.00 | 48 | 1015.5 |
| 20260502222812 | 49 | 274 | 5.0 | 10.0 | 0.00 | 0.01 | 0.00 | 48 | 1015.5 |
| 20260502222501 | 49 | 276 | 5.0 | 9.0 | 0.00 | 0.01 | 0.00 | 48 | 1015.5 |
| 20260502222312 | 49 | 286 | 5.0 | 10.0 | 0.00 | 0.01 | 0.00 | 48 | 1015.5 |
| 20260502222001 | 49 | 290 | 4.0 | 10.0 | 0.00 | 0.01 | 0.00 | 47 | 1015.6 |
| 20260502221811 | 49 | 292 | 4.0 | 10.0 | 0.00 | 0.01 | 0.00 | 48 | 1015.5 |
| 20260502221501 | 49 | 286 | 5.0 | 10.0 | 0.00 | 0.01 | 0.00 | 47 | 1015.5 |
| 20260502221311 | 49 | 286 | 5.0 | 9.0 | 0.00 | 0.01 | 0.00 | 48 | 1015.5 |
| 20260502221023 | 49 | 292 | 5.0 | 9.0 | 0.00 | 0.01 | 0.00 | 48 | 1015.6 |
| 20260502220811 | 49 | 288 | 5.0 | 10.0 | 0.00 | 0.01 | 0.00 | 48 | 1015.5 |
| 20260502220501 | 48 | 302 | 6.0 | 10.0 | 0.00 | 0.01 | 0.00 | 47 | 1015.6 |
| 20260502220311 | 48 | 306 | 6.0 | 10.0 | 0.00 | 0.01 | 0.00 | 48 | 1015.5 |
| 20260502220001 | 48 | 302 | 7.0 | 13.0 | 0.00 | 0.01 | 0.00 | 46 | 1015.6 |
| 20260502215811 | 49 | 304 | 6.0 | 13.0 | 0.00 | 0.01 | 0.00 | 45 | 1015.6 |
| 20260502215523 | 49 | 303 | 6.0 | 13.0 | 0.00 | 0.01 | 0.00 | 45 | 1015.7 |
| 20260502215311 | 49 | 299 | 6.0 | 13.0 | 0.00 | 0.01 | 0.00 | 46 | 1015.6 |
| 20260502215001 | 49 | 300 | 6.0 | 11.0 | 0.00 | 0.01 | 0.00 | 45 | 1015.5 |
| 20260502214811 | 50 | 298 | 6.0 | 11.0 | 0.00 | 0.01 | 0.00 | 46 | 1015.6 |
| 20260502214501 | 50 | 282 | 6.0 | 11.0 | 0.00 | 0.01 | 0.00 | 46 | 1015.6 |
| 20260502214311 | 50 | 278 | 6.0 | 11.0 | 0.00 | 0.01 | 0.00 | 47 | 1015.6 |
| 20260502214001 | 50 | 273 | 7.0 | 11.0 | 0.00 | 0.01 | 0.00 | 47 | 1015.7 |
| 20260502213811 | 50 | 269 | 7.0 | 11.0 | 0.00 | 0.01 | 0.00 | 49 | 1015.6 |
| 20260502213501 | 50 | 274 | 7.0 | 11.0 | 0.00 | 0.01 | 0.00 | 50 | 1015.6 |
| 20260502213311 | 50 | 276 | 7.0 | 13.0 | 0.00 | 0.01 | 0.00 | 47 | 1015.5 |
| 20260502213002 | 50 | 278 | 7.0 | 13.0 | 0.00 | 0.01 | 0.00 | 46 | 1015.5 |
| 20260502212811 | 50 | 279 | 6.0 | 13.0 | 0.00 | 0.01 | 0.00 | 46 | 1015.5 |
| 20260502212501 | 50 | 278 | 6.0 | 13.0 | 0.00 | 0.01 | 0.00 | 47 | 1015.6 |
| 20260502212311 | 50 | 276 | 6.0 | 14.0 | 0.00 | 0.01 | 0.00 | 46 | 1015.5 |
| 20260502212001 | 50 | 278 | 6.0 | 14.0 | 0.00 | 0.01 | 0.00 | 49 | 1015.6 |
| 20260502211811 | 50 | 282 | 6.0 | 14.0 | 0.00 | 0.01 | 0.00 | 54 | 1015.6 |
| 20260502211523 | 49 | 287 | 6.0 | 14.0 | 0.00 | 0.01 | 0.00 | 53 | 1015.6 |
| 20260502211311 | 49 | 292 | 5.0 | 11.0 | 0.00 | 0.01 | 0.00 | 48 | 1015.6 |
| 20260502211001 | 49 | 290 | 5.0 | 11.0 | 0.00 | 0.01 | 0.00 | 46 | 1015.6 |
| 20260502210811 | 49 | 286 | 6.0 | 12.0 | 0.00 | 0.01 | 0.00 | 47 | 1015.6 |
| 20260502210501 | 49 | 288 | 7.0 | 12.0 | 0.00 | 0.01 | 0.00 | 47 | 1015.6 |
| 20260502210310 | 49 | 288 | 7.0 | 12.0 | 0.00 | 0.01 | 0.00 | 47 | 1015.6 |
| 20260502210023 | 49 | 292 | 6.0 | 12.0 | 0.00 | 0.01 | 0.00 | 47 | 1015.6 |
| 20260502205810 | 48 | 298 | 6.0 | 12.0 | 0.00 | 0.01 | 0.00 | 46 | 1015.5 |
| 20260502205501 | 49 | 303 | 6.0 | 12.0 | 0.00 | 0.01 | 0.00 | 45 | 1015.6 |
| 20260502205310 | 49 | 305 | 7.0 | 12.0 | 0.00 | 0.01 | 0.00 | 45 | 1015.6 |
| 20260502205002 | 49 | 310 | 6.0 | 12.0 | 0.00 | 0.01 | 0.00 | 45 | 1015.6 |
| 20260502204810 | 49 | 305 | 6.0 | 12.0 | 0.00 | 0.01 | 0.00 | 45 | 1015.6 |
| 20260502204502 | 49 | 288 | 6.0 | 13.0 | 0.00 | 0.01 | 0.00 | 46 | 1015.5 |
| 20260502204310 | 49 | 280 | 6.0 | 13.0 | 0.00 | 0.01 | 0.00 | 45 | 1015.6 |
| 20260502204022 | 49 | 275 | 6.0 | 13.0 | 0.00 | 0.01 | 0.00 | 46 | 1015.5 |
| 20260502203810 | 49 | 284 | 7.0 | 13.0 | 0.00 | 0.01 | 0.00 | 46 | 1015.6 |
| 20260502203501 | 49 | 302 | 7.0 | 16.0 | 0.00 | 0.01 | 0.00 | 46 | 1015.7 |
| 20260502203310 | 49 | 311 | 6.0 | 16.0 | 0.00 | 0.01 | 0.00 | 46 | 1015.6 |
| 20260502203002 | 49 | 311 | 6.0 | 16.0 | 0.00 | 0.01 | 0.00 | 45 | 1015.6 |
| 20260502202810 | 49 | 309 | 6.0 | 16.0 | 0.00 | 0.01 | 0.00 | 43 | 1015.7 |
| 20260502202501 | 49 | 310 | 6.0 | 11.0 | 0.00 | 0.01 | 0.00 | 45 | 1015.7 |
| 20260502202310 | 49 | 310 | 6.0 | 12.0 | 0.00 | 0.01 | 0.00 | 46 | 1015.8 |
| 20260502202001 | 49 | 313 | 7.0 | 12.0 | 0.00 | 0.01 | 0.00 | 44 | 1015.8 |
| 20260502201810 | 49 | 308 | 7.0 | 12.0 | 0.00 | 0.01 | 0.00 | 43 | 1015.9 |
| 20260502201523 | 50 | 299 | 7.0 | 12.0 | 0.00 | 0.01 | 0.00 | 44 | 1015.8 |
| 20260502201310 | 50 | 296 | 6.0 | 12.0 | 0.00 | 0.01 | 0.00 | 46 | 1015.9 |
| 20260502201002 | 50 | 286 | 6.0 | 12.0 | 0.00 | 0.01 | 0.00 | 45 | 1016.0 |
| 20260502200810 | 50 | 284 | 6.0 | 12.0 | 0.00 | 0.01 | 0.00 | 45 | 1016.0 |
| 20260502200501 | 50 | 280 | 7.0 | 13.0 | 0.00 | 0.01 | 0.00 | 44 | 1016.0 |
| 20260502200310 | 50 | 279 | 8.0 | 13.0 | 0.00 | 0.01 | 0.00 | 44 | 1016.1 |
| 20260502200022 | 50 | 277 | 8.0 | 13.0 | 0.00 | 0.01 | 0.00 | 44 | 1016.1 |
| 20260502195810 | 50 | 277 | 7.0 | 13.0 | 0.00 | 0.01 | 0.00 | 44 | 1016.1 |
| 20260502195522 | 50 | 277 | 7.0 | 12.0 | 0.00 | 0.01 | 0.00 | 44 | 1016.0 |
| 20260502195309 | 50 | 276 | 7.0 | 12.0 | 0.00 | 0.01 | 0.00 | 44 | 1016.1 |
| 20260502195002 | 50 | 280 | 7.0 | 12.0 | 0.00 | 0.01 | 0.00 | 44 | 1016.1 |
| 20260502194809 | 50 | 282 | 7.0 | 13.0 | 0.00 | 0.01 | 0.00 | 44 | 1016.1 |
| 20260502194522 | 50 | 285 | 7.0 | 13.0 | 0.00 | 0.01 | 0.00 | 45 | 1016.1 |
| 20260502194309 | 50 | 288 | 6.0 | 13.0 | 0.00 | 0.01 | 0.00 | 44 | 1016.2 |
| 20260502194002 | 50 | 297 | 6.0 | 13.0 | 0.00 | 0.01 | 0.00 | 48 | 1016.3 |
| 20260502193809 | 50 | 302 | 6.0 | 13.0 | 0.00 | 0.01 | 0.00 | 45 | 1016.3 |
| 20260502193522 | 50 | 303 | 6.0 | 13.0 | 0.00 | 0.01 | 0.00 | 43 | 1016.3 |
| 20260502193309 | 50 | 302 | 6.0 | 13.0 | 0.00 | 0.01 | 0.00 | 44 | 1016.3 |
| 20260502193001 | 50 | 297 | 6.0 | 14.0 | 0.00 | 0.01 | 0.00 | 43 | 1016.3 |
| 20260502192809 | 50 | 285 | 5.0 | 14.0 | 0.00 | 0.01 | 0.00 | 45 | 1016.3 |
| 20260502192502 | 50 | 274 | 6.0 | 14.0 | 0.00 | 0.01 | 0.00 | 44 | 1016.3 |
| 20260502192309 | 50 | 271 | 6.0 | 14.0 | 0.00 | 0.01 | 0.00 | 42 | 1016.4 |
| 20260502192001 | 50 | 261 | 5.0 | 13.0 | 0.00 | 0.01 | 0.00 | 47 | 1016.5 |
| 20260502191809 | 50 | 267 | 5.0 | 13.0 | 0.00 | 0.01 | 0.00 | 51 | 1016.5 |
| 20260502191501 | 50 | 277 | 5.0 | 13.0 | 0.00 | 0.01 | 0.00 | 49 | 1016.5 |
| 20260502191309 | 50 | 282 | 5.0 | 10.0 | 0.00 | 0.01 | 0.00 | 48 | 1016.6 |
| 20260502191001 | 49 | 293 | 5.0 | 11.0 | 0.00 | 0.01 | 0.00 | 48 | 1016.5 |
| 20260502190809 | 49 | 293 | 6.0 | 11.0 | 0.00 | 0.01 | 0.00 | 51 | 1016.6 |
| 20260502190523 | 49 | 293 | 6.0 | 11.0 | 0.00 | 0.01 | 0.00 | 47 | 1016.6 |
| 20260502190309 | 49 | 287 | 5.0 | 11.0 | 0.00 | 0.01 | 0.00 | 43 | 1016.7 |
| 20260502190001 | 49 | 282 | 6.0 | 13.0 | 0.00 | 0.01 | 0.00 | 43 | 1016.6 |
| 20260502185808 | 49 | 278 | 6.0 | 13.0 | 0.00 | 0.01 | 0.00 | 43 | 1016.6 |
| 20260502185501 | 49 | 280 | 7.0 | 13.0 | 0.00 | 0.01 | 0.00 | 43 | 1016.6 |
| 20260502185308 | 49 | 281 | 7.0 | 13.0 | 0.00 | 0.01 | 0.00 | 43 | 1016.7 |
| 20260502185023 | 49 | 283 | 6.0 | 12.0 | 0.00 | 0.01 | 0.00 | 44 | 1016.7 |
| 20260502184808 | 49 | 287 | 6.0 | 12.0 | 0.00 | 0.01 | 0.00 | 44 | 1016.7 |
| 20260502184502 | 49 | 286 | 5.0 | 11.0 | 0.00 | 0.01 | 0.00 | 45 | 1016.6 |
| 20260502184308 | 49 | 291 | 5.0 | 11.0 | 0.00 | 0.01 | 0.00 | 45 | 1016.7 |
| 20260502184001 | 49 | 277 | 4.0 | 10.0 | 0.00 | 0.01 | 0.00 | 44 | 1016.7 |
| 20260502183808 | 49 | 262 | 5.0 | 10.0 | 0.00 | 0.01 | 0.00 | 46 | 1016.7 |
| 20260502183522 | 49 | 260 | 4.0 | 10.0 | 0.00 | 0.01 | 0.00 | 44 | 1016.7 |
| 20260502183308 | 49 | 261 | 5.0 | 10.0 | 0.00 | 0.01 | 0.00 | 45 | 1016.7 |
| 20260502183002 | 49 | 274 | 5.0 | 10.0 | 0.00 | 0.01 | 0.00 | 46 | 1016.7 |
| 20260502182808 | 49 | 275 | 4.0 | 10.0 | 0.00 | 0.01 | 0.00 | 46 | 1016.7 |
| 20260502182523 | 49 | 260 | 4.0 | 8.0 | 0.00 | 0.01 | 0.00 | 46 | 1016.7 |
| 20260502182308 | 49 | 253 | 4.0 | 10.0 | 0.00 | 0.01 | 0.00 | 46 | 1016.7 |
| 20260502182001 | 49 | 252 | 4.0 | 10.0 | 0.00 | 0.01 | 0.00 | 46 | 1016.7 |
| 20260502181808 | 49 | 257 | 4.0 | 10.0 | 0.00 | 0.01 | 0.00 | 44 | 1016.8 |
| 20260502181502 | 49 | 258 | 4.0 | 10.0 | 0.00 | 0.01 | 0.00 | 46 | 1016.8 |
| 20260502181308 | 49 | 255 | 5.0 | 12.0 | 0.00 | 0.01 | 0.00 | 49 | 1016.9 |
| 20260502181002 | 48 | 260 | 5.0 | 12.0 | 0.00 | 0.01 | 0.00 | 46 | 1016.9 |
| 20260502180808 | 48 | 267 | 5.0 | 12.0 | 0.00 | 0.01 | 0.00 | 44 | 1016.9 |
| 20260502180501 | 48 | 287 | 5.0 | 12.0 | 0.00 | 0.01 | 0.00 | 47 | 1016.9 |
| 20260502180308 | 48 | 300 | 4.0 | 8.0 | 0.00 | 0.01 | 0.00 | 47 | 1016.9 |
| 20260502170502 | 48 | 284 | 4.0 | 9.0 | 0.00 | 0.01 | 0.00 | 49 | 1017.1 |
| 20260502170307 | 47 | 277 | 5.0 | 11.0 | 0.00 | 0.01 | 0.00 | 52 | 1017.1 |
| 20260502164306 | 47 | 284 | 6.0 | 11.0 | 0.00 | 0.01 | 0.00 | 48 | 1017.2 |
| 20260502164001 | 47 | 288 | 6.0 | 11.0 | 0.00 | 0.01 | 0.00 | 47 | 1017.2 |
| 20260502163806 | 47 | 290 | 5.0 | 11.0 | 0.00 | 0.01 | 0.00 | 50 | 1017.2 |
| 20260502163502 | 47 | 304 | 5.0 | 11.0 | 0.00 | 0.01 | 0.00 | 50 | 1017.2 |
| 20260502163306 | 47 | 310 | 5.0 | 8.0 | 0.00 | 0.01 | 0.00 | 48 | 1017.2 |
| 20260502163001 | 48 | 301 | 5.0 | 9.0 | 0.00 | 0.01 | 0.00 | 48 | 1017.2 |
| 20260502162806 | 48 | 301 | 5.0 | 12.0 | 0.00 | 0.01 | 0.00 | 50 | 1017.2 |
| 20260502162501 | 48 | 298 | 5.0 | 12.0 | 0.00 | 0.01 | 0.00 | 49 | 1017.1 |
| 20260502162306 | 48 | 298 | 5.0 | 12.0 | 0.00 | 0.01 | 0.00 | 49 | 1017.1 |
| 20260502162002 | 48 | 302 | 5.0 | 12.0 | 0.00 | 0.01 | 0.00 | 48 | 1017.2 |
| 20260502161806 | 48 | 286 | 5.0 | 10.0 | 0.00 | 0.01 | 0.00 | 48 | 1017.1 |
| 20260502161502 | 48 | 276 | 5.0 | 10.0 | 0.00 | 0.01 | 0.00 | 48 | 1017.2 |
| 20260502161306 | 48 | 273 | 6.0 | 11.0 | 0.00 | 0.01 | 0.00 | 50 | 1017.1 |
| 20260502161001 | 48 | 271 | 7.0 | 13.0 | 0.00 | 0.01 | 0.00 | 51 | 1017.2 |
| 20260502160806 | 48 | 277 | 7.0 | 13.0 | 0.00 | 0.01 | 0.00 | 50 | 1017.1 |
| 20260502160502 | 48 | 279 | 7.0 | 13.0 | 0.00 | 0.01 | 0.00 | 51 | 1017.3 |
| 20260502160306 | 48 | 286 | 6.0 | 13.0 | 0.00 | 0.01 | 0.00 | 52 | 1017.3 |
| 20260502152305 | 45 | 300 | 6.0 | 13.0 | 0.00 | 0.01 | 0.00 | 57 | 1017.3 |
| 20260502152023 | 45 | 298 | 7.0 | 13.0 | 0.00 | 0.01 | 0.00 | 57 | 1017.3 |
| 20260502151805 | 45 | 296 | 6.0 | 13.0 | 0.00 | 0.01 | 0.00 | 58 | 1017.3 |
| 20260502151502 | 45 | 314 | 5.0 | 12.0 | 0.00 | 0.01 | 0.00 | 58 | 1017.3 |
| 20260502151305 | 45 | 320 | 5.0 | 13.0 | 0.00 | 0.01 | 0.00 | 58 | 1017.4 |
| 20260502151001 | 44 | 321 | 5.0 | 13.0 | 0.00 | 0.01 | 0.00 | 59 | 1017.3 |
| 20260502150805 | 44 | 321 | 6.0 | 13.0 | 0.00 | 0.01 | 0.00 | 58 | 1017.2 |
| 20260502150502 | 44 | 310 | 6.0 | 13.0 | 0.00 | 0.01 | 0.00 | 57 | 1017.2 |
| 20260502150305 | 44 | 308 | 5.0 | 13.0 | 0.00 | 0.01 | 0.00 | 59 | 1017.3 |
| 20260502130502 | 43 | 304 | 4.0 | 9.0 | 0.00 | 0.01 | 0.00 | 69 | 1017.4 |
| 20260502130303 | 43 | 300 | 4.0 | 9.0 | 0.00 | 0.01 | 0.00 | 68 | 1017.4 |
| 20260502123803 | 42 | 317 | 4.0 | 9.0 | 0.00 | 0.01 | 0.00 | 74 | 1017.3 |
| 20260502123502 | 42 | 319 | 3.0 | 7.0 | 0.00 | 0.01 | 0.00 | 73 | 1017.4 |
| 20260502123303 | 42 | 312 | 3.0 | 7.0 | 0.00 | 0.01 | 0.00 | 72 | 1017.3 |
| 20260502123002 | 42 | 305 | 3.0 | 7.0 | 0.00 | 0.01 | 0.00 | 71 | 1017.3 |
| 20260502122803 | 42 | 301 | 3.0 | 7.0 | 0.00 | 0.01 | 0.00 | 73 | 1017.3 |
| 20260502122502 | 42 | 296 | 4.0 | 8.0 | 0.00 | 0.01 | 0.00 | 76 | 1017.3 |
| 20260502122305 | 42 | 296 | 3.0 | 8.0 | 0.00 | 0.01 | 0.00 | 73 | 1017.4 |
| 20260502122003 | 42 | 294 | 3.0 | 8.0 | 0.00 | 0.01 | 0.00 | 73 | 1017.4 |
| 20260502121803 | 41 | 293 | 3.0 | 8.0 | 0.00 | 0.01 | 0.00 | 73 | 1017.4 |
| 20260502121503 | 41 | 293 | 3.0 | 7.0 | 0.00 | 0.01 | 0.00 | 74 | 1017.3 |
| 20260502121302 | 41 | 294 | 4.0 | 7.0 | 0.00 | 0.01 | 0.00 | 74 | 1017.3 |
| 20260502121002 | 41 | 296 | 4.0 | 8.0 | 0.00 | 0.01 | 0.00 | 73 | 1017.3 |
| 20260502120803 | 41 | 295 | 4.0 | 8.0 | 0.00 | 0.01 | 0.00 | 74 | 1017.3 |
| 20260502120502 | 41 | 294 | 4.0 | 8.0 | 0.00 | 0.01 | 0.00 | 74 | 1017.3 |
| 20260502120302 | 41 | 294 | 3.0 | 8.0 | 0.00 | 0.01 | 0.00 | 75 | 1017.3 |
| 20260502115802 | 41 | 289 | 3.0 | 7.0 | 0.00 | 0.01 | 0.00 | 77 | 1017.2 |
| 20260502115502 | 41 | 288 | 3.0 | 7.0 | 0.00 | 0.01 | 0.00 | 79 | 1017.2 |
| 20260502115305 | 41 | 290 | 4.0 | 7.0 | 0.00 | 0.01 | 0.00 | 82 | 1017.2 |
| 20260502115002 | 40 | 293 | 4.0 | 7.0 | 0.00 | 0.01 | 0.00 | 81 | 1017.3 |
| 20260502114802 | 40 | 294 | 4.0 | 7.0 | 0.00 | 0.01 | 0.00 | 81 | 1017.3 |
| 20260502114503 | 40 | 300 | 3.0 | 7.0 | 0.00 | 0.01 | 0.00 | 82 | 1017.3 |
| 20260502114302 | 39 | 302 | 3.0 | 7.0 | 0.00 | 0.01 | 0.00 | 81 | 1017.2 |
| 20260502114003 | 39 | 305 | 3.0 | 7.0 | 0.00 | 0.01 | 0.00 | 82 | 1017.3 |
| 20260502113802 | 38 | 311 | 2.0 | 5.0 | 0.00 | 0.01 | 0.00 | 80 | 1017.2 |
| 20260502113502 | 38 | 314 | 2.0 | 5.0 | 0.00 | 0.01 | 0.00 | 80 | 1017.2 |
| 20260502113302 | 38 | 315 | 1.0 | 4.0 | 0.00 | 0.01 | 0.00 | 80 | 1017.1 |
| 20260502113003 | 38 | 315 | 0.0 | 4.0 | 0.00 | 0.01 | 0.00 | 80 | 1017.1 |
| 20260502112802 | 37 | 0 | 0.0 | 0.0 | 0.00 | 0.01 | 0.00 | 80 | 1017.1 |
| 20260502112524 | 37 | 0 | 0.0 | 0.0 | 0.00 | 0.01 | 0.00 | 80 | 1017.1 |
| 20260502112305 | 37 | 0 | 0.0 | 0.0 | 0.00 | 0.01 | 0.00 | 79 | 1017.0 |
| 20260502112004 | 37 | 0 | 0.0 | 0.0 | 0.00 | 0.01 | 0.00 | 79 | 1017.1 |
| 20260502111802 | 37 | 0 | 0.0 | 0.0 | 0.00 | 0.01 | 0.00 | 79 | 1017.0 |
| 20260502111523 | 37 | 0 | 0.0 | 0.0 | 0.00 | 0.01 | 0.00 | 78 | 1017.0 |
| 20260502111301 | 37 | 0 | 0.0 | 0.0 | 0.00 | 0.01 | 0.00 | 78 | 1017.0 |
| 20260502111003 | 37 | 0 | 0.0 | 0.0 | 0.00 | 0.01 | 0.00 | 78 | 1017.0 |
| 20260502110801 | 37 | 0 | 0.0 | 0.0 | 0.00 | 0.01 | 0.00 | 78 | 1016.9 |
| 20260502110502 | 37 | 0 | 0.0 | 0.0 | 0.00 | 0.01 | 0.00 | 78 | 1017.0 |
| 20260502110301 | 37 | 0 | 0.0 | 0.0 | 0.00 | 0.01 | 0.00 | 78 | 1017.0 |
| 20260502110002 | 37 | 0 | 0.0 | 0.0 | 0.00 | 0.01 | 0.00 | 78 | 1016.9 |
| 20260502105801 | 37 | 0 | 0.0 | 0.0 | 0.00 | 0.01 | 0.00 | 77 | 1016.8 |
| 20260502105503 | 37 | 0 | 0.0 | 0.0 | 0.00 | 0.01 | 0.00 | 77 | 1016.8 |
| 20260502105301 | 37 | 0 | 0.0 | 0.0 | 0.00 | 0.01 | 0.00 | 77 | 1016.8 |
| 20260502105003 | 37 | 0 | 0.0 | 0.0 | 0.00 | 0.01 | 0.00 | 77 | 1016.8 |
| 20260502104801 | 37 | 0 | 0.0 | 0.0 | 0.00 | 0.01 | 0.00 | 77 | 1016.9 |
| 20260502104503 | 37 | 0 | 0.0 | 0.0 | 0.00 | 0.01 | 0.00 | 77 | 1016.9 |
| 20260502104301 | 38 | 0 | 0.0 | 0.0 | 0.00 | 0.01 | 0.00 | 77 | 1016.9 |
| 20260502104002 | 38 | 0 | 0.0 | 0.0 | 0.00 | 0.01 | 0.00 | 76 | 1016.9 |
| 20260502103801 | 38 | 0 | 0.0 | 0.0 | 0.00 | 0.01 | 0.00 | 76 | 1016.9 |
| 20260502103503 | 38 | 0 | 0.0 | 0.0 | 0.00 | 0.01 | 0.00 | 77 | 1016.9 |
| 20260502103301 | 38 | 0 | 0.0 | 0.0 | 0.00 | 0.01 | 0.00 | 77 | 1016.8 |
| 20260502103002 | 38 | 0 | 0.0 | 0.0 | 0.00 | 0.01 | 0.00 | 77 | 1016.8 |
| 20260502102801 | 38 | 0 | 0.0 | 0.0 | 0.00 | 0.01 | 0.00 | 77 | 1016.8 |
| 20260502102502 | 38 | 0 | 0.0 | 0.0 | 0.00 | 0.01 | 0.00 | 78 | 1016.9 |
| 20260502102301 | 38 | 0 | 0.0 | 0.0 | 0.00 | 0.01 | 0.00 | 78 | 1016.8 |
| 20260502102002 | 38 | 0 | 0.0 | 0.0 | 0.00 | 0.01 | 0.00 | 77 | 1016.7 |
| 20260502101801 | 38 | 0 | 0.0 | 0.0 | 0.00 | 0.01 | 0.00 | 76 | 1016.7 |
| 20260502101503 | 38 | 0 | 0.0 | 0.0 | 0.00 | 0.01 | 0.00 | 76 | 1016.7 |
| 20260502101301 | 38 | 0 | 0.0 | 0.0 | 0.00 | 0.01 | 0.00 | 76 | 1016.7 |
| 20260502101003 | 38 | 0 | 0.0 | 0.0 | 0.00 | 0.01 | 0.00 | 76 | 1016.7 |
| 20260502100800 | 38 | 0 | 0.0 | 0.0 | 0.00 | 0.01 | 0.00 | 77 | 1016.7 |
| 20260502100503 | 38 | 0 | 0.0 | 0.0 | 0.00 | 0.01 | 0.00 | 77 | 1016.7 |
| 20260502100300 | 38 | 0 | 0.0 | 0.0 | 0.00 | 0.01 | 0.00 | 77 | 1016.7 |
| 20260502091502 | 38 | 317 | 1.0 | 2.0 | 0.00 | 0.01 | 0.00 | 76 | 1016.6 |
| 20260502091300 | 38 | 317 | 1.0 | 2.0 | 0.00 | 0.01 | 0.00 | 76 | 1016.6 |
| 20260502091024 | 38 | 317 | 1.0 | 2.0 | 0.00 | 0.01 | 0.00 | 76 | 1016.6 |
| 20260502090800 | 38 | 317 | 0.0 | 2.0 | 0.00 | 0.01 | 0.00 | 76 | 1016.6 |
| 20260502090504 | 38 | 317 | 0.0 | 2.0 | 0.00 | 0.01 | 0.00 | 76 | 1016.6 |
| 20260502090300 | 38 | 317 | 0.0 | 2.0 | 0.00 | 0.01 | 0.00 | 76 | 1016.5 |
| 20260502071502 | 38 | 0 | 0.0 | 0.0 | 0.00 | 0.01 | 0.00 | 79 | 1016.3 |
| 20260502071258 | 38 | 0 | 0.0 | 0.0 | 0.00 | 0.01 | 0.00 | 79 | 1016.3 |
| 20260502071003 | 38 | 41 | 0.0 | 2.0 | 0.00 | 0.01 | 0.00 | 79 | 1016.4 |
| 20260502070758 | 38 | 41 | 1.0 | 2.0 | 0.00 | 0.01 | 0.00 | 79 | 1016.4 |
| 20260502070503 | 38 | 41 | 1.0 | 2.0 | 0.00 | 0.01 | 0.00 | 79 | 1016.4 |
| 20260502070258 | 38 | 41 | 1.0 | 2.0 | 0.00 | 0.01 | 0.00 | 79 | 1016.5 |
| 20260502070002 | 38 | 41 | 1.0 | 2.0 | 0.00 | 0.01 | 0.00 | 79 | 1016.5 |
| 20260502065758 | 38 | 41 | 1.0 | 3.0 | 0.00 | 0.01 | 0.00 | 79 | 1016.5 |
| 20260502065503 | 38 | 41 | 1.0 | 3.0 | 0.00 | 0.01 | 0.00 | 79 | 1016.5 |
| 20260502065258 | 38 | 14 | 1.0 | 5.0 | 0.00 | 0.01 | 0.00 | 78 | 1016.3 |
| 20260502065003 | 38 | 355 | 1.0 | 5.0 | 0.00 | 0.01 | 0.00 | 78 | 1016.4 |
| 20260502064758 | 38 | 333 | 2.0 | 5.0 | 0.00 | 0.01 | 0.00 | 77 | 1016.4 |
| 20260502064502 | 38 | 323 | 2.0 | 5.0 | 0.00 | 0.01 | 0.00 | 78 | 1016.4 |
| 20260502064258 | 38 | 313 | 1.0 | 4.0 | 0.00 | 0.01 | 0.00 | 78 | 1016.5 |
| 20260502064003 | 38 | 313 | 2.0 | 4.0 | 0.00 | 0.01 | 0.00 | 78 | 1016.6 |
| 20260502063758 | 38 | 313 | 2.0 | 4.0 | 0.00 | 0.01 | 0.00 | 77 | 1016.6 |
| 20260502063524 | 38 | 323 | 2.0 | 5.0 | 0.00 | 0.01 | 0.00 | 77 | 1016.6 |
| 20260502063258 | 38 | 340 | 3.0 | 5.0 | 0.00 | 0.01 | 0.00 | 77 | 1016.6 |
| 20260502063024 | 38 | 347 | 3.0 | 5.0 | 0.00 | 0.01 | 0.00 | 77 | 1016.6 |
| 20260502062757 | 38 | 4 | 3.0 | 5.0 | 0.00 | 0.01 | 0.00 | 77 | 1016.7 |
| 20260502062524 | 38 | 5 | 2.0 | 5.0 | 0.00 | 0.01 | 0.00 | 77 | 1016.6 |
| 20260502062257 | 38 | 5 | 2.0 | 5.0 | 0.00 | 0.01 | 0.00 | 76 | 1016.7 |
| 20260502062003 | 38 | 5 | 2.0 | 5.0 | 0.00 | 0.01 | 0.00 | 76 | 1016.7 |
| 20260502061757 | 39 | 5 | 2.0 | 4.0 | 0.00 | 0.01 | 0.00 | 77 | 1016.7 |
| 20260502061257 | 39 | 5 | 2.0 | 4.0 | 0.00 | 0.01 | 0.00 | 76 | 1016.8 |
| 20260502061003 | 39 | 5 | 2.0 | 4.0 | 0.00 | 0.01 | 0.00 | 76 | 1016.8 |
| 20260502060757 | 39 | 5 | 2.0 | 4.0 | 0.00 | 0.01 | 0.00 | 75 | 1016.9 |
| 20260502060502 | 39 | 5 | 2.0 | 3.0 | 0.00 | 0.01 | 0.00 | 75 | 1016.8 |
| 20260502060257 | 39 | 5 | 2.0 | 3.0 | 0.00 | 0.01 | 0.00 | 75 | 1016.9 |
| 20260502060024 | 39 | 5 | 2.0 | 3.0 | 0.00 | 0.01 | 0.00 | 76 | 1016.9 |
| 20260502055757 | 39 | 5 | 2.0 | 3.0 | 0.00 | 0.01 | 0.00 | 76 | 1016.9 |
| 20260502055503 | 39 | 5 | 2.0 | 3.0 | 0.00 | 0.01 | 0.00 | 76 | 1016.9 |
| 20260502055257 | 39 | 5 | 2.0 | 3.0 | 0.00 | 0.01 | 0.00 | 75 | 1017.0 |
| 20260502055003 | 39 | 5 | 2.0 | 4.0 | 0.00 | 0.01 | 0.00 | 75 | 1016.9 |
| 20260502054757 | 39 | 5 | 2.0 | 4.0 | 0.00 | 0.01 | 0.00 | 75 | 1017.0 |
| 20260502054503 | 39 | 5 | 2.0 | 4.0 | 0.00 | 0.01 | 0.00 | 75 | 1017.1 |
| 20260502054257 | 39 | 5 | 2.0 | 4.0 | 0.00 | 0.01 | 0.00 | 74 | 1017.0 |
| 20260502054003 | 39 | 5 | 2.0 | 3.0 | 0.00 | 0.01 | 0.00 | 74 | 1016.9 |
| 20260502053757 | 39 | 5 | 2.0 | 3.0 | 0.00 | 0.01 | 0.00 | 74 | 1016.9 |
| 20260502053503 | 39 | 5 | 2.0 | 3.0 | 0.00 | 0.01 | 0.00 | 74 | 1016.9 |
| 20260502053257 | 39 | 5 | 2.0 | 4.0 | 0.00 | 0.01 | 0.00 | 74 | 1016.9 |
| 20260502053003 | 39 | 5 | 2.0 | 4.0 | 0.00 | 0.01 | 0.00 | 74 | 1016.9 |
| 20260502052757 | 39 | 5 | 2.0 | 4.0 | 0.00 | 0.01 | 0.00 | 74 | 1016.9 |
| 20260502052504 | 39 | 5 | 2.0 | 4.0 | 0.00 | 0.01 | 0.00 | 74 | 1016.8 |
| 20260502052257 | 39 | 5 | 2.0 | 5.0 | 0.00 | 0.01 | 0.00 | 74 | 1016.8 |
| 20260502052024 | 39 | 5 | 2.0 | 5.0 | 0.00 | 0.01 | 0.00 | 74 | 1016.7 |
| 20260502051757 | 39 | 5 | 2.0 | 5.0 | 0.00 | 0.01 | 0.00 | 73 | 1016.8 |
| 20260502051503 | 39 | 5 | 2.0 | 5.0 | 0.00 | 0.01 | 0.00 | 74 | 1016.8 |
| 20260502051257 | 39 | 5 | 2.0 | 4.0 | 0.00 | 0.01 | 0.00 | 74 | 1016.7 |
| 20260502051003 | 39 | 5 | 2.0 | 4.0 | 0.00 | 0.01 | 0.00 | 74 | 1016.7 |
| 20260502050757 | 39 | 5 | 1.0 | 4.0 | 0.00 | 0.01 | 0.00 | 74 | 1016.7 |
| 20260502050503 | 39 | 5 | 1.0 | 3.0 | 0.00 | 0.01 | 0.00 | 74 | 1016.8 |
| 20260502050256 | 39 | 5 | 1.0 | 3.0 | 0.00 | 0.01 | 0.00 | 74 | 1016.8 |
| 20260502050003 | 39 | 5 | 1.0 | 3.0 | 0.00 | 0.01 | 0.00 | 74 | 1016.9 |
| 20260502045756 | 39 | 5 | 1.0 | 2.0 | 0.00 | 0.01 | 0.00 | 74 | 1016.9 |
| 20260502045503 | 39 | 5 | 1.0 | 3.0 | 0.00 | 0.01 | 0.00 | 74 | 1016.9 |
| 20260502045256 | 39 | 5 | 1.0 | 3.0 | 0.00 | 0.01 | 0.00 | 74 | 1016.8 |
| 20260502045003 | 39 | 5 | 1.0 | 3.0 | 0.00 | 0.01 | 0.00 | 74 | 1016.7 |
| 20260502044756 | 39 | 5 | 2.0 | 3.0 | 0.00 | 0.01 | 0.00 | 74 | 1016.7 |
| 20260502044502 | 39 | 5 | 2.0 | 3.0 | 0.00 | 0.01 | 0.00 | 74 | 1016.7 |
| 20260502044256 | 39 | 5 | 1.0 | 3.0 | 0.00 | 0.01 | 0.00 | 74 | 1016.6 |
| 20260502044003 | 39 | 5 | 1.0 | 3.0 | 0.00 | 0.01 | 0.00 | 73 | 1016.7 |
| 20260502043756 | 39 | 5 | 1.0 | 3.0 | 0.00 | 0.01 | 0.00 | 74 | 1016.7 |
| 20260502043503 | 39 | 5 | 1.0 | 3.0 | 0.00 | 0.01 | 0.00 | 73 | 1016.7 |
| 20260502043256 | 39 | 5 | 1.0 | 3.0 | 0.00 | 0.01 | 0.00 | 73 | 1016.6 |
| 20260502043002 | 39 | 5 | 1.0 | 3.0 | 0.00 | 0.01 | 0.00 | 73 | 1016.6 |
| 20260502042756 | 39 | 5 | 1.0 | 3.0 | 0.00 | 0.01 | 0.00 | 73 | 1016.5 |
| 20260502042503 | 39 | 5 | 1.0 | 3.0 | 0.00 | 0.01 | 0.00 | 73 | 1016.6 |
| 20260502042256 | 39 | 5 | 1.0 | 3.0 | 0.00 | 0.01 | 0.00 | 73 | 1016.6 |
| 20260502042003 | 39 | 5 | 1.0 | 3.0 | 0.00 | 0.01 | 0.00 | 73 | 1016.6 |
| 20260502041756 | 39 | 5 | 1.0 | 3.0 | 0.00 | 0.01 | 0.00 | 73 | 1016.5 |
| 20260502041503 | 39 | 5 | 1.0 | 3.0 | 0.00 | 0.01 | 0.00 | 73 | 1016.6 |
| 20260502041256 | 39 | 5 | 2.0 | 3.0 | 0.00 | 0.01 | 0.00 | 73 | 1016.6 |
| 20260502041004 | 39 | 5 | 1.0 | 3.0 | 0.00 | 0.01 | 0.00 | 72 | 1016.5 |
| 20260502040756 | 39 | 5 | 1.0 | 3.0 | 0.00 | 0.01 | 0.00 | 72 | 1016.5 |
| 20260502040503 | 39 | 5 | 1.0 | 3.0 | 0.00 | 0.01 | 0.00 | 71 | 1016.4 |
| 20260502040256 | 39 | 5 | 1.0 | 3.0 | 0.00 | 0.01 | 0.00 | 71 | 1016.4 |
| 20260502040024 | 39 | 5 | 1.0 | 3.0 | 0.00 | 0.01 | 0.00 | 71 | 1016.4 |
| 20260502035756 | 39 | 5 | 1.0 | 2.0 | 0.00 | 0.01 | 0.01 | 71 | 1016.4 |
| 20260502035503 | 39 | 5 | 1.0 | 3.0 | 0.00 | 0.01 | 0.01 | 70 | 1016.5 |
| 20260502035255 | 39 | 5 | 2.0 | 5.0 | 0.00 | 0.01 | 0.01 | 70 | 1016.5 |
| 20260502035003 | 39 | 5 | 2.0 | 5.0 | 0.00 | 0.01 | 0.01 | 69 | 1016.5 |
| 20260502034755 | 39 | 5 | 2.0 | 5.0 | 0.00 | 0.01 | 0.01 | 69 | 1016.6 |
| 20260502034503 | 39 | 5 | 2.0 | 5.0 | 0.00 | 0.01 | 0.01 | 69 | 1016.5 |
| 20260502034255 | 39 | 5 | 2.0 | 5.0 | 0.00 | 0.01 | 0.01 | 69 | 1016.6 |
| 20260502034025 | 39 | 5 | 2.0 | 4.0 | 0.00 | 0.01 | 0.01 | 69 | 1016.5 |
| 20260502033755 | 39 | 5 | 1.0 | 3.0 | 0.00 | 0.01 | 0.01 | 70 | 1016.6 |
| 20260502033503 | 39 | 5 | 1.0 | 3.0 | 0.00 | 0.01 | 0.01 | 69 | 1016.7 |
| 20260502033255 | 39 | 9 | 2.0 | 5.0 | 0.00 | 0.01 | 0.01 | 70 | 1016.7 |
| 20260502033025 | 39 | 13 | 2.0 | 5.0 | 0.00 | 0.01 | 0.01 | 70 | 1016.7 |
| 20260502032755 | 39 | 19 | 2.0 | 5.0 | 0.00 | 0.01 | 0.01 | 70 | 1016.6 |
| 20260502032525 | 40 | 16 | 2.0 | 5.0 | 0.00 | 0.01 | 0.01 | 70 | 1016.6 |
| 20260502032255 | 40 | 9 | 2.0 | 6.0 | 0.00 | 0.01 | 0.01 | 70 | 1016.6 |
| 20260502032003 | 40 | 4 | 2.0 | 6.0 | 0.00 | 0.01 | 0.01 | 70 | 1016.6 |
| 20260502031755 | 40 | 360 | 2.0 | 6.0 | 0.00 | 0.01 | 0.01 | 70 | 1016.5 |
| 20260502031503 | 40 | 8 | 2.0 | 6.0 | 0.00 | 0.01 | 0.01 | 70 | 1016.6 |
| 20260502031255 | 40 | 24 | 2.0 | 5.0 | 0.00 | 0.01 | 0.01 | 70 | 1016.6 |
| 20260502031024 | 40 | 31 | 2.0 | 5.0 | 0.00 | 0.01 | 0.01 | 70 | 1016.5 |
| 20260502030755 | 40 | 46 | 2.0 | 3.0 | 0.00 | 0.01 | 0.01 | 70 | 1016.5 |
| 20260502030503 | 40 | 46 | 2.0 | 4.0 | 0.00 | 0.01 | 0.01 | 70 | 1016.6 |
| 20260502030255 | 40 | 46 | 2.0 | 4.0 | 0.00 | 0.01 | 0.01 | 70 | 1016.6 |
| 20260502030003 | 40 | 46 | 2.0 | 4.0 | 0.00 | 0.01 | 0.01 | 70 | 1016.5 |
| 20260502025755 | 40 | 46 | 3.0 | 4.0 | 0.00 | 0.01 | 0.01 | 70 | 1016.6 |
| 20260502025503 | 40 | 50 | 3.0 | 6.0 | 0.00 | 0.01 | 0.01 | 70 | 1016.6 |
| 20260502025255 | 40 | 57 | 3.0 | 7.0 | 0.00 | 0.01 | 0.01 | 72 | 1016.5 |
| 20260502025003 | 40 | 59 | 3.0 | 7.0 | 0.00 | 0.01 | 0.01 | 72 | 1016.5 |
| 20260502024755 | 40 | 66 | 3.0 | 7.0 | 0.00 | 0.01 | 0.01 | 72 | 1016.5 |
| 20260502024503 | 40 | 68 | 3.0 | 7.0 | 0.00 | 0.01 | 0.01 | 72 | 1016.5 |
| 20260502024254 | 40 | 63 | 4.0 | 8.0 | 0.00 | 0.01 | 0.01 | 71 | 1016.5 |
| 20260502024003 | 40 | 62 | 4.0 | 8.0 | 0.00 | 0.01 | 0.01 | 70 | 1016.5 |
| 20260502023754 | 40 | 64 | 4.0 | 8.0 | 0.00 | 0.01 | 0.01 | 70 | 1016.4 |
| 20260502023503 | 40 | 65 | 4.0 | 9.0 | 0.00 | 0.01 | 0.01 | 70 | 1016.4 |
| 20260502023254 | 41 | 70 | 4.0 | 9.0 | 0.00 | 0.01 | 0.01 | 70 | 1016.4 |
| 20260502023004 | 41 | 73 | 4.0 | 9.0 | 0.00 | 0.01 | 0.01 | 71 | 1016.3 |
| 20260502022754 | 41 | 70 | 4.0 | 9.0 | 0.00 | 0.01 | 0.01 | 70 | 1016.3 |
| 20260502022503 | 41 | 68 | 4.0 | 10.0 | 0.00 | 0.01 | 0.01 | 70 | 1016.4 |
| 20260502022254 | 41 | 65 | 4.0 | 10.0 | 0.00 | 0.01 | 0.01 | 70 | 1016.3 |
| 20260502022003 | 41 | 61 | 4.0 | 11.0 | 0.00 | 0.01 | 0.01 | 71 | 1016.3 |
| 20260502021754 | 41 | 59 | 4.0 | 11.0 | 0.00 | 0.01 | 0.01 | 71 | 1016.2 |
| 20260502021503 | 41 | 59 | 4.0 | 11.0 | 0.00 | 0.01 | 0.01 | 72 | 1016.2 |
| 20260502021254 | 41 | 57 | 3.0 | 11.0 | 0.00 | 0.01 | 0.01 | 71 | 1016.1 |
| 20260502021004 | 41 | 55 | 3.0 | 6.0 | 0.00 | 0.01 | 0.01 | 71 | 1016.0 |
| 20260502020754 | 41 | 60 | 3.0 | 6.0 | 0.00 | 0.01 | 0.01 | 72 | 1016.1 |
| 20260502020503 | 41 | 60 | 3.0 | 6.0 | 0.00 | 0.01 | 0.01 | 73 | 1016.0 |
| 20260502020254 | 41 | 71 | 3.0 | 6.0 | 0.00 | 0.01 | 0.01 | 73 | 1016.0 |
| 20260502020025 | 41 | 75 | 3.0 | 6.0 | 0.00 | 0.01 | 0.01 | 72 | 1016.0 |
| 20260502015754 | 41 | 75 | 3.0 | 6.0 | 0.00 | 0.01 | 0.01 | 72 | 1015.9 |
| 20260502015504 | 41 | 75 | 3.0 | 7.0 | 0.00 | 0.01 | 0.01 | 72 | 1015.8 |
| 20260502015254 | 41 | 70 | 3.0 | 7.0 | 0.00 | 0.01 | 0.01 | 72 | 1015.8 |
| 20260502015024 | 41 | 70 | 3.0 | 7.0 | 0.00 | 0.01 | 0.01 | 72 | 1015.7 |
| 20260502014754 | 41 | 69 | 3.0 | 7.0 | 0.00 | 0.01 | 0.01 | 72 | 1015.8 |
| 20260502014524 | 41 | 69 | 3.0 | 6.0 | 0.00 | 0.01 | 0.01 | 71 | 1015.8 |
| 20260502014254 | 41 | 67 | 3.0 | 7.0 | 0.00 | 0.01 | 0.01 | 72 | 1015.7 |
| 20260502014003 | 41 | 67 | 3.0 | 7.0 | 0.00 | 0.01 | 0.01 | 72 | 1015.7 |
| 20260502013754 | 41 | 67 | 3.0 | 7.0 | 0.00 | 0.01 | 0.01 | 72 | 1015.7 |
| 20260502013503 | 41 | 63 | 3.0 | 8.0 | 0.00 | 0.01 | 0.01 | 71 | 1015.7 |
| 20260502013253 | 41 | 70 | 3.0 | 10.0 | 0.00 | 0.01 | 0.01 | 71 | 1015.6 |
| 20260502013003 | 41 | 68 | 4.0 | 10.0 | 0.00 | 0.01 | 0.01 | 71 | 1015.6 |
| 20260502012753 | 41 | 66 | 4.0 | 10.0 | 0.00 | 0.01 | 0.01 | 71 | 1015.6 |
| 20260502012503 | 41 | 69 | 3.0 | 10.0 | 0.00 | 0.01 | 0.01 | 71 | 1015.6 |
| 20260502012253 | 41 | 67 | 3.0 | 7.0 | 0.01 | 0.01 | 0.01 | 71 | 1015.6 |
| 20260502012003 | 41 | 70 | 3.0 | 5.0 | 0.01 | 0.01 | 0.01 | 71 | 1015.5 |
| 20260502011753 | 41 | 73 | 3.0 | 9.0 | 0.01 | 0.01 | 0.01 | 70 | 1015.5 |
| 20260502011504 | 41 | 73 | 3.0 | 9.0 | 0.01 | 0.01 | 0.01 | 71 | 1015.5 |
| 20260502011253 | 41 | 72 | 3.0 | 9.0 | 0.01 | 0.01 | 0.01 | 71 | 1015.4 |
| 20260502011003 | 41 | 69 | 3.0 | 9.0 | 0.01 | 0.01 | 0.01 | 71 | 1015.4 |
| 20260502010753 | 41 | 64 | 4.0 | 11.0 | 0.01 | 0.01 | 0.01 | 71 | 1015.3 |
| 20260502010503 | 41 | 62 | 4.0 | 11.0 | 0.01 | 0.01 | 0.01 | 70 | 1015.3 |
| 20260502010253 | 41 | 61 | 5.0 | 11.0 | 0.01 | 0.01 | 0.01 | 70 | 1015.4 |
| 20260502010004 | 41 | 62 | 5.0 | 11.0 | 0.01 | 0.01 | 0.01 | 69 | 1015.3 |
| 20260502005753 | 41 | 65 | 4.0 | 9.0 | 0.01 | 0.01 | 0.01 | 69 | 1015.3 |
| 20260502005504 | 41 | 66 | 4.0 | 9.0 | 0.01 | 0.01 | 0.01 | 70 | 1015.3 |
| 20260502005253 | 41 | 68 | 4.0 | 9.0 | 0.01 | 0.01 | 0.01 | 70 | 1015.2 |
| 20260502005003 | 41 | 65 | 4.0 | 9.0 | 0.01 | 0.01 | 0.01 | 72 | 1015.2 |
| 20260502004753 | 41 | 64 | 4.0 | 9.0 | 0.01 | 0.01 | 0.01 | 72 | 1015.2 |
| 20260502004503 | 41 | 64 | 4.0 | 9.0 | 0.01 | 0.01 | 0.01 | 71 | 1015.2 |
| 20260502004253 | 41 | 65 | 4.0 | 9.0 | 0.01 | 0.01 | 0.01 | 71 | 1015.3 |
| 20260502004004 | 41 | 69 | 3.0 | 8.0 | 0.01 | 0.01 | 0.01 | 71 | 1015.3 |
| 20260502003723 | 41 | 68 | 3.0 | 8.0 | 0.01 | 0.01 | 0.01 | 72 | 1015.3 |
| 20260502003522 | 41 | 65 | 3.0 | 8.0 | 0.01 | 0.01 | 0.01 | 73 | 1015.2 |
| 20260502003223 | 41 | 60 | 3.0 | 7.0 | 0.01 | 0.01 | 0.01 | 73 | 1015.2 |
| 20260502003001 | 42 | 58 | 3.0 | 7.0 | 0.01 | 0.01 | 0.01 | 73 | 1015.2 |
| 20260502002722 | 42 | 60 | 2.0 | 4.0 | 0.01 | 0.01 | 0.01 | 74 | 1015.2 |
| 20260502002522 | 42 | 60 | 2.0 | 4.0 | 0.01 | 0.01 | 0.01 | 75 | 1015.1 |
| 20260502002222 | 42 | 58 | 2.0 | 4.0 | 0.00 | 0.00 | 0.00 | 74 | 1015.2 |
| 20260502002001 | 42 | 58 | 3.0 | 5.0 | 0.00 | 0.00 | 0.00 | 74 | 1015.2 |
| 20260502001722 | 43 | 62 | 3.0 | 7.0 | 0.00 | 0.00 | 0.00 | 74 | 1015.1 |
| 20260502001522 | 43 | 60 | 3.0 | 7.0 | 0.00 | 0.00 | 0.00 | 74 | 1015.1 |
| 20260502001222 | 43 | 65 | 3.0 | 8.0 | 0.00 | 0.00 | 0.00 | 74 | 1015.0 |
| 20260502001001 | 43 | 66 | 3.0 | 8.0 | 0.00 | 0.00 | 0.00 | 74 | 1015.0 |
| 20260502000722 | 43 | 66 | 3.0 | 8.0 | 0.00 | 0.00 | 0.00 | 73 | 1015.0 |
| 20260502000501 | 43 | 71 | 3.0 | 8.0 | 0.00 | 0.00 | 0.00 | 73 | 1015.0 |
| 20260502000222 | 43 | 70 | 3.0 | 7.0 | 0.00 | 0.00 | 0.00 | 73 | 1014.9 |
| 20260502000002 | 43 | 71 | 3.0 | 7.0 | 0.00 | 0.00 | 0.00 | 73 | 1014.9 |
| 20260501235722 | 43 | 68 | 3.0 | 7.0 | 0.00 | 0.00 | 0.00 | 73 | 1014.9 |
| 20260501235501 | 44 | 63 | 3.0 | 6.0 | 0.00 | 0.00 | 0.00 | 73 | 1014.7 |
| 20260501235222 | 44 | 59 | 2.0 | 5.0 | 0.00 | 0.00 | 0.00 | 73 | 1014.8 |
| 20260501235002 | 44 | 58 | 3.0 | 7.0 | 0.00 | 0.00 | 0.00 | 73 | 1014.7 |
| 20260501234722 | 44 | 62 | 3.0 | 7.0 | 0.00 | 0.00 | 0.00 | 73 | 1014.6 |
| 20260501234522 | 44 | 64 | 3.0 | 7.0 | 0.00 | 0.00 | 0.00 | 73 | 1014.7 |
| 20260501234222 | 44 | 68 | 3.0 | 7.0 | 0.00 | 0.00 | 0.00 | 74 | 1014.6 |
| 20260501234002 | 44 | 70 | 3.0 | 5.0 | 0.00 | 0.00 | 0.00 | 74 | 1014.6 |
| 20260501233722 | 44 | 68 | 3.0 | 5.0 | 0.00 | 0.00 | 0.00 | 74 | 1014.6 |
| 20260501233501 | 44 | 67 | 3.0 | 5.0 | 0.00 | 0.00 | 0.00 | 75 | 1014.5 |
| 20260501233222 | 44 | 69 | 2.0 | 5.0 | 0.00 | 0.00 | 0.00 | 75 | 1014.5 |
| 20260501233002 | 44 | 71 | 2.0 | 5.0 | 0.00 | 0.00 | 0.00 | 75 | 1014.5 |
| 20260501232721 | 44 | 71 | 2.0 | 5.0 | 0.00 | 0.00 | 0.00 | 76 | 1014.5 |
| 20260501232501 | 44 | 69 | 2.0 | 5.0 | 0.00 | 0.00 | 0.00 | 76 | 1014.5 |
| 20260501232221 | 44 | 65 | 3.0 | 9.0 | 0.00 | 0.00 | 0.00 | 76 | 1014.5 |
| 20260501232001 | 44 | 64 | 3.0 | 9.0 | 0.00 | 0.00 | 0.00 | 76 | 1014.4 |
| 20260501231721 | 44 | 64 | 3.0 | 9.0 | 0.00 | 0.00 | 0.00 | 76 | 1014.3 |
| 20260501231501 | 44 | 64 | 3.0 | 9.0 | 0.00 | 0.00 | 0.00 | 76 | 1014.3 |
| 20260501231221 | 44 | 65 | 2.0 | 9.0 | 0.00 | 0.00 | 0.00 | 76 | 1014.3 |
| 20260501231001 | 44 | 63 | 2.0 | 9.0 | 0.00 | 0.00 | 0.00 | 77 | 1014.4 |
| 20260501230721 | 44 | 61 | 2.0 | 3.0 | 0.00 | 0.00 | 0.00 | 77 | 1014.3 |
| 20260501230502 | 44 | 62 | 2.0 | 6.0 | 0.00 | 0.00 | 0.00 | 76 | 1014.3 |
| 20260501230221 | 44 | 66 | 2.0 | 6.0 | 0.00 | 0.00 | 0.00 | 76 | 1014.3 |
| 20260501230001 | 44 | 68 | 3.0 | 6.0 | 0.00 | 0.00 | 0.00 | 76 | 1014.4 |
| 20260501225721 | 44 | 70 | 3.0 | 6.0 | 0.00 | 0.00 | 0.00 | 76 | 1014.4 |
| 20260501225502 | 44 | 69 | 3.0 | 7.0 | 0.00 | 0.00 | 0.00 | 77 | 1014.4 |
| 20260501225221 | 44 | 65 | 3.0 | 8.0 | 0.00 | 0.00 | 0.00 | 77 | 1014.2 |
| 20260501225002 | 44 | 65 | 3.0 | 8.0 | 0.00 | 0.00 | 0.00 | 77 | 1014.3 |
| 20260501224721 | 44 | 68 | 3.0 | 8.0 | 0.00 | 0.00 | 0.00 | 77 | 1014.3 |
| 20260501224501 | 44 | 70 | 3.0 | 8.0 | 0.00 | 0.00 | 0.00 | 77 | 1014.3 |